Regional Weather Roundup
Issued by NWS

Home | Current Version | Previous Version | Graphics & Text | Print | Product List | Glossary On
Versions: 1 2 3 4 5 6 7 8 9 10 11 12 13 14 15 16 17 18 19 20 21 22 23 24 25 26 27 28 29 30 31 32 33 34 35 36 37 38 39 40 41 42 43 44 45 46 47 48 49 50
000
ASUS45 KTFX 211610
RWRMT
MONTANA REGIONAL WEATHER ROUNDUP
NATIONAL WEATHER SERVICE GREAT FALLS MT
1000 AM MDT THU MAY 21 2015

NOTE: "FAIR" INDICATES FEW OR NO CLOUDS BELOW 12000 FEET WITH NO
SIGNIFICANT WEATHER AND/OR OBSTRUCTIONS TO VISIBILITY.

MTZ001>007-043-211700-
WEST OF THE DIVIDE

CITY           SKY/WX    TMP DP  RH WIND       PRES   REMARKS
KALISPELL      SUNNY     62  36  37 NE7       29.98F
MISSOULA       SUNNY     61  35  37 NW6       29.98F
BUTTE          CLOUDY    52  37  56 S10       30.06F
MULLAN PASS    SUNNY     54  32  43 SE8       30.03R
DEER LODGE       N/A     57  39  51 S7        30.06F
EUREKA           N/A     61  36  39 CALM      30.00F
HAMILTON         N/A     59  41  51 NE2       29.98F
LIBBY            N/A     61  37  41 CALM      29.97F
RONAN            N/A     63  36  36 MISG      30.02S
THOMPSON FALLS   N/A     63  42  46 NE8       29.99F
$$

MTZ008-052>055-211700-
SOUTHWEST MONTANA

CITY           SKY/WX    TMP DP  RH WIND       PRES   REMARKS
BOZEMAN        CLOUDY    53  38  56 SW3       30.06F
DILLON         PTSUNNY   54  43  66 NE6       30.04F
W YELLOWSTONE  CLOUDY    45  39  81 CALM      30.11F
THREE FORKS      N/A     53  53 100 CALM      30.05
TWIN BRIDGES     N/A     55  37  50 N12       30.03F
$$

MTZ009-010-012-014-046-048-049-054-211700-
EAST SLOPES AND CENTRAL MONTANA

CITY           SKY/WX    TMP DP  RH WIND       PRES   REMARKS
CUT BANK       SUNNY     51  33  50 VRB5      30.06F
GREAT FALLS    SUNNY     57  38  48 E3        30.04F
MALMSTROM AFB  SUNNY     55  35  48 NE3       30.06S
HELENA         MOSUNNY   55  35  47 CALM      30.06S
CONRAD           N/A     52  38  58 NE2       30.07F
$$

MTZ011-013-016-021-045-047-050-051-211700-
NORTH CENTRAL MONTANA

CITY           SKY/WX    TMP DP  RH WIND       PRES   REMARKS
HAVRE          SUNNY     62  29  28 SE17G26   30.08F
LEWISTOWN      SUNNY     57  38  48 E15       30.08F
N BAR RANCH    FAIR      54  37  54 S9        30.14S
CHINOOK          N/A     61  39  44 E10G16    30.11F
FORT BENTON      N/A     57  37  47 E7        30.07F
$$

MTZ017>020-022>027-061-062-211700-
NORTHEAST MONTANA

CITY           SKY/WX    TMP DP  RH WIND       PRES   REMARKS
GLASGOW        SUNNY     60  34  37 SE12      30.19F
SIDNEY         SUNNY     61  39  44 CALM      30.23F
WOLF POINT     SUNNY     63  36  36 VRB5      30.21F
MALTA            N/A     62  37  39 SE12      30.12F
PLENTYWOOD       N/A     64  28  25 W3        30.20F
POPLAR           N/A     63  32  31 SW3       30.22F VSB 3/4
$$

MTZ028>42-056>058-211700-
SOUTHCENTRAL AND SOUTHEAST MONTANA

CITY           SKY/WX    TMP DP  RH WIND       PRES   REMARKS
BAKER          SUNNY     60  33  36 SE7       30.24F
BILLINGS       MOSUNNY   51  37  58 CALM      30.12F
LIVINGSTON     CLOUDY    51  39  63 E10       30.09F
MILES CITY     SUNNY     57  33  40 SE17      30.19F
BIG TIMBER       N/A     48  39  71 NE5       30.11F
FORSYTH          N/A     57  32  38 SE12G18   30.16F
LAUREL           N/A     51  38  61 NE5       30.10S
ROUNDUP          N/A     54  35  48 CALM      30.03F
$$

REGIONAL REPORTS...DAKOTAS

CITY           SKY/WX    TMP DP  RH WIND       PRES   REMARKS
WILLISTON      SUNNY     62  39  42 VRB3      30.21F
MINOT          SUNNY     63  36  36 N3        30.16F
DICKINSON      SUNNY     63  29  27 VRB3      30.21F
BEACH          FAIR      59  30  33 E5        30.24F
CROSBY         FAIR      66  32  28 N12       30.20S
WATFORD CITY   FAIR      64  32  29 NW6       30.20S
BISMARCK       SUNNY     67  34  29 N6        30.19S
GRAND FORKS    SUNNY     61  38  42 N3        30.15S
FARGO          SUNNY     61  44  53 NW7       30.14S
BUFFALO SD       N/A     58  32  37 VRB7      30.18S
RAPID CITY     SUNNY     56  30  37 S12       30.25F
$$

REGIONAL REPORTS...WYOMING/IDAHO/WASHINGTON

CITY           SKY/WX    TMP DP  RH WIND       PRES   REMARKS
GILLETTE       SUNNY     50  37  61 S18       30.18F
SHERIDAN       MOSUNNY   53  40  61 VRB6      30.13F
BUFFALO WY       N/A    N/A N/A N/A MISG      30.14S
CODY           MOSUNNY   50  43  76 E8        30.11F
YELLOWSTONE LA   N/A     43  34  70 VRB3      30.17F
IDAHO FALLS    CLOUDY    57  43  59 N3        30.04F
SALMON         CLOUDY    57  43  58 CALM      29.99F
BOISE          SUNNY     63  49  60 CALM      29.92F
SPOKANE        PTSUNNY   68  46  45 VRB7      29.90S
$$

REGIONAL REPORTS...ALBERTA

CITY           SKY/WX    TMP DP  RH WIND       PRES   REMARKS
EDMONTON       SUNNY     66  32  28 S10       30.04S
CALGARY        MOSUNNY   59  30  33 SE12G18   30.04S
MEDICINE HAT   SUNNY     64  30  27 SE13G20   30.09F
$$

REGIONAL REPORTS...SASKATCHEWAN

CITY           SKY/WX    TMP DP  RH WIND       PRES   REMARKS
REGINA         SUNNY     68  34  28 NW9       30.18F
SASKATOON      SUNNY     68  30  24 NW5       30.17F
$$



USA.gov is the U.S. government's official web portal to all federal, state and local government web resources and services.